Time,TemperatureF,DewpointF,PressureIn,WindDirection,WindDirectionDegrees,WindSpeedMPH,WindSpeedGustMPH,Humidity,HourlyPrecipIn,Conditions,Clouds,dailyrainin,SolarRadiationWatts/m^2,SoftwareType,DateUTC
2013-03-12 00:12:00,39.0,29.0,-100.00,SE,129,1.0,4.0,67,0.00,,,0.00,0.000000,,2013-03-12 07:12:00,
2013-03-12 00:21:00,39.0,29.0,-100.00,SE,129,1.0,4.0,67,0.00,,,0.00,0.000000,,2013-03-12 07:21:00,
2013-03-12 00:32:00,39.0,29.0,-100.00,SE,129,1.0,4.0,67,0.00,,,0.00,0.000000,,2013-03-12 07:32:00,
2013-03-12 00:42:00,39.0,29.0,-100.00,SE,129,1.0,4.0,67,0.00,,,0.00,0.000000,,2013-03-12 07:42:00,
2013-03-12 01:12:00,38.0,29.0,-100.00,East,93,0.0,4.0,70,0.00,,,0.00,0.000000,,2013-03-12 08:12:00,
2013-03-12 01:22:00,38.0,29.0,-100.00,East,93,0.0,4.0,70,0.00,,,0.00,0.000000,,2013-03-12 08:22:00,
2013-03-12 01:32:00,38.0,29.0,-100.00,East,93,0.0,4.0,70,0.00,,,0.00,0.000000,,2013-03-12 08:32:00,
2013-03-12 01:42:00,38.0,29.0,-100.00,East,93,0.0,4.0,70,0.00,,,0.00,0.000000,,2013-03-12 08:42:00,
2013-03-12 02:11:00,34.0,27.0,-100.00,SE,135,0.0,4.0,74,0.00,,,0.00,0.000000,,2013-03-12 09:11:00,
2013-03-12 02:22:00,34.0,27.0,-100.00,SE,135,0.0,4.0,74,0.00,,,0.00,0.000000,,2013-03-12 09:22:00,
2013-03-12 02:32:00,34.0,27.0,-100.00,SE,135,0.0,4.0,74,0.00,,,0.00,0.000000,,2013-03-12 09:32:00,
2013-03-12 02:42:00,34.0,27.0,-100.00,SE,135,0.0,4.0,74,0.00,,,0.00,0.000000,,2013-03-12 09:42:00,
2013-03-12 03:12:00,36.0,26.0,-100.00,South,177,0.0,0.0,68,0.00,,,0.00,0.000000,,2013-03-12 10:12:00,
2013-03-12 03:22:00,36.0,26.0,-100.00,South,177,0.0,0.0,68,0.00,,,0.00,0.000000,,2013-03-12 10:22:00,
2013-03-12 03:32:00,36.0,26.0,-100.00,South,177,0.0,0.0,68,0.00,,,0.00,0.000000,,2013-03-12 10:32:00,
2013-03-12 03:42:00,36.0,26.0,-100.00,South,177,0.0,0.0,68,0.00,,,0.00,0.000000,,2013-03-12 10:42:00,
2013-03-12 04:12:00,35.0,26.0,-100.00,SSE,157,4.0,5.0,68,0.00,,,0.00,0.000000,,2013-03-12 11:12:00,
2013-03-12 04:22:00,35.0,26.0,-100.00,SSE,157,4.0,5.0,68,0.00,,,0.00,0.000000,,2013-03-12 11:22:00,
2013-03-12 04:32:00,35.0,26.0,-100.00,SSE,157,4.0,5.0,68,0.00,,,0.00,0.000000,,2013-03-12 11:32:00,
2013-03-12 04:42:00,35.0,26.0,-100.00,SSE,157,4.0,5.0,68,0.00,,,0.00,0.000000,,2013-03-12 11:42:00,
2013-03-12 05:12:00,35.0,24.0,-100.00,ENE,63,0.0,5.0,65,0.00,,,0.00,0.000000,,2013-03-12 12:12:00,
2013-03-12 05:22:00,35.0,24.0,-100.00,ENE,63,0.0,5.0,65,0.00,,,0.00,0.000000,,2013-03-12 12:22:00,
2013-03-12 05:32:00,35.0,24.0,-100.00,ENE,63,0.0,5.0,65,0.00,,,0.00,0.000000,,2013-03-12 12:32:00,
2013-03-12 05:42:00,35.0,24.0,-100.00,ENE,63,0.0,5.0,65,0.00,,,0.00,0.000000,,2013-03-12 12:42:00,
2013-03-12 06:12:00,34.0,26.0,-100.00,SE,127,5.0,7.0,72,0.00,,,0.00,0.000000,,2013-03-12 13:12:00,
2013-03-12 06:22:00,34.0,26.0,-100.00,SE,127,5.0,7.0,72,0.00,,,0.00,0.000000,,2013-03-12 13:22:00,
2013-03-12 06:32:00,34.0,26.0,-100.00,SE,127,5.0,7.0,72,0.00,,,0.00,0.000000,,2013-03-12 13:32:00,
2013-03-12 06:42:00,34.0,26.0,-100.00,SE,127,5.0,7.0,72,0.00,,,0.00,0.000000,,2013-03-12 13:42:00,
2013-03-12 07:12:00,34.0,27.0,-100.00,SE,136,4.0,9.0,76,0.00,,,0.00,0.000000,,2013-03-12 14:12:00,
2013-03-12 07:22:00,34.0,27.0,-100.00,SE,136,4.0,9.0,76,0.00,,,0.00,0.000000,,2013-03-12 14:22:00,
2013-03-12 07:32:00,34.0,27.0,-100.00,SE,136,4.0,9.0,76,0.00,,,0.00,0.000000,,2013-03-12 14:32:00,
2013-03-12 07:42:00,34.0,27.0,-100.00,SE,136,4.0,9.0,76,0.00,,,0.00,0.000000,,2013-03-12 14:42:00,
2013-03-12 08:12:00,33.0,27.0,-100.00,SSE,164,6.0,8.0,79,0.00,,,0.00,0.000000,,2013-03-12 15:12:00,
2013-03-12 08:22:00,33.0,27.0,-100.00,SSE,164,6.0,8.0,79,0.00,,,0.00,0.000000,,2013-03-12 15:22:00,
2013-03-12 08:32:00,33.0,27.0,-100.00,SSE,164,6.0,8.0,79,0.00,,,0.00,0.000000,,2013-03-12 15:32:00,
2013-03-12 08:42:00,33.0,27.0,-100.00,SSE,164,6.0,8.0,79,0.00,,,0.00,0.000000,,2013-03-12 15:42:00,
2013-03-12 09:12:00,37.0,28.0,-100.00,South,186,0.0,5.0,69,0.00,,,0.00,2.000000,,2013-03-12 16:12:00,
2013-03-12 09:22:00,37.0,28.0,-100.00,South,186,0.0,5.0,69,0.00,,,0.00,2.000000,,2013-03-12 16:22:00,
2013-03-12 09:32:00,37.0,28.0,-100.00,South,186,0.0,5.0,69,0.00,,,0.00,2.000000,,2013-03-12 16:32:00,
2013-03-12 09:42:00,37.0,28.0,-100.00,South,186,0.0,5.0,69,0.00,,,0.00,2.000000,,2013-03-12 16:42:00,
2013-03-12 10:02:00,43.0,32.0,-100.00,South,173,4.0,6.0,64,0.00,,,0.00,108.000000,,2013-03-12 17:02:00,
2013-03-12 10:12:00,43.0,32.0,-100.00,South,173,4.0,6.0,64,0.00,,,0.00,108.000000,,2013-03-12 17:12:00,
2013-03-12 10:22:00,43.0,32.0,-100.00,South,173,4.0,6.0,64,0.00,,,0.00,108.000000,,2013-03-12 17:22:00,
2013-03-12 10:33:00,43.0,32.0,-100.00,South,173,4.0,6.0,64,0.00,,,0.00,108.000000,,2013-03-12 17:33:00,
2013-03-12 10:43:00,43.0,32.0,-100.00,South,173,4.0,6.0,64,0.00,,,0.00,108.000000,,2013-03-12 17:43:00,
2013-03-12 11:02:00,50.0,37.0,-100.00,South,186,7.0,11.0,60,0.00,,,0.00,300.000000,,2013-03-12 18:02:00,
2013-03-12 12:13:00,54.0,38.0,-100.00,SSW,204,12.0,21.0,54,0.00,,,0.00,485.000000,,2013-03-12 19:13:00,
2013-03-12 12:22:00,54.0,38.0,-100.00,SSW,204,12.0,21.0,54,0.00,,,0.00,485.000000,,2013-03-12 19:22:00,
2013-03-12 13:12:00,53.0,37.0,-100.00,WSW,241,13.0,23.0,54,0.00,,,0.00,231.000000,,2013-03-12 20:12:00,
2013-03-12 13:22:00,53.0,37.0,-100.00,WSW,241,13.0,23.0,54,0.00,,,0.00,231.000000,,2013-03-12 20:22:00,
2013-03-12 13:32:00,53.0,37.0,-100.00,WSW,241,13.0,23.0,54,0.00,,,0.00,231.000000,,2013-03-12 20:32:00,
2013-03-12 13:42:00,53.0,37.0,-100.00,WSW,241,13.0,23.0,54,0.00,,,0.00,231.000000,,2013-03-12 20:42:00,
2013-03-12 14:12:00,54.0,37.0,-100.00,SW,221,13.0,24.0,52,0.00,,,0.00,272.000000,,2013-03-12 21:12:00,
2013-03-12 14:22:00,54.0,37.0,-100.00,SW,221,13.0,24.0,52,0.00,,,0.00,272.000000,,2013-03-12 21:22:00,
2013-03-12 14:42:00,54.0,37.0,-100.00,SW,221,13.0,24.0,52,0.00,,,0.00,272.000000,,2013-03-12 21:42:00,
2013-03-12 15:12:00,56.0,38.0,-100.00,SW,229,11.0,19.0,51,0.00,,,0.00,146.000000,,2013-03-12 22:12:00,
2013-03-12 15:22:00,56.0,38.0,-100.00,SW,229,11.0,19.0,51,0.00,,,0.00,146.000000,,2013-03-12 22:22:00,
2013-03-12 15:32:00,56.0,38.0,-100.00,SW,229,11.0,19.0,51,0.00,,,0.00,146.000000,,2013-03-12 22:32:00,
2013-03-12 15:42:00,56.0,38.0,-100.00,SW,229,11.0,19.0,51,0.00,,,0.00,146.000000,,2013-03-12 22:42:00,
2013-03-12 16:12:00,58.0,39.0,-100.00,WSW,255,7.0,17.0,49,0.00,,,0.00,250.000000,,2013-03-12 23:12:00,
2013-03-12 16:22:00,58.0,39.0,-100.00,WSW,255,7.0,17.0,49,0.00,,,0.00,250.000000,,2013-03-12 23:22:00,
2013-03-12 16:34:00,58.0,39.0,-100.00,WSW,255,7.0,17.0,49,0.00,,,0.00,250.000000,,2013-03-12 23:34:00,
2013-03-12 16:42:00,58.0,39.0,-100.00,WSW,255,7.0,17.0,49,0.00,,,0.00,250.000000,,2013-03-12 23:42:00,
2013-03-12 17:12:00,58.0,39.0,-100.00,West,279,5.0,11.0,49,0.00,,,0.00,228.000000,,2013-03-13 00:12:00,
2013-03-12 17:22:00,58.0,39.0,-100.00,West,279,5.0,11.0,49,0.00,,,0.00,228.000000,,2013-03-13 00:22:00,
2013-03-12 17:33:00,58.0,39.0,-100.00,West,279,5.0,11.0,49,0.00,,,0.00,228.000000,,2013-03-13 00:33:00,
2013-03-12 17:42:00,58.0,39.0,-100.00,West,279,5.0,11.0,49,0.00,,,0.00,228.000000,,2013-03-13 00:42:00,
2013-03-12 18:12:00,54.0,37.0,-100.00,WNW,294,9.0,14.0,53,0.00,,,0.00,90.000000,,2013-03-13 01:12:00,
2013-03-12 18:22:00,54.0,37.0,-100.00,WNW,294,9.0,14.0,53,0.00,,,0.00,90.000000,,2013-03-13 01:22:00,
2013-03-12 18:32:00,54.0,37.0,-100.00,WNW,294,9.0,14.0,53,0.00,,,0.00,90.000000,,2013-03-13 01:32:00,
2013-03-12 18:42:00,54.0,37.0,-100.00,WNW,294,9.0,14.0,53,0.00,,,0.00,90.000000,,2013-03-13 01:42:00,
2013-03-12 19:12:00,47.0,37.0,-100.00,NW,323,4.0,12.0,68,0.00,,,0.00,17.000000,,2013-03-13 02:12:00,
2013-03-12 19:22:00,47.0,37.0,-100.00,NW,323,4.0,12.0,68,0.00,,,0.00,17.000000,,2013-03-13 02:22:00,
2013-03-12 19:32:00,47.0,37.0,-100.00,NW,323,4.0,12.0,68,0.00,,,0.00,17.000000,,2013-03-13 02:32:00,
2013-03-12 19:42:00,47.0,37.0,-100.00,NW,323,4.0,12.0,68,0.00,,,0.00,17.000000,,2013-03-13 02:42:00,
2013-03-12 20:12:00,46.0,37.0,-100.00,WNW,285,4.0,9.0,72,0.00,,,0.00,0.000000,,2013-03-13 03:12:00,
2013-03-12 20:22:00,46.0,37.0,-100.00,WNW,285,4.0,9.0,72,0.00,,,0.00,0.000000,,2013-03-13 03:22:00,
2013-03-12 20:32:00,46.0,37.0,-100.00,WNW,285,4.0,9.0,72,0.00,,,0.00,0.000000,,2013-03-13 03:32:00,
2013-03-12 20:42:00,46.0,37.0,-100.00,WNW,285,4.0,9.0,72,0.00,,,0.00,0.000000,,2013-03-13 03:42:00,
2013-03-12 21:13:00,45.0,37.0,-100.00,WSW,250,2.0,6.0,74,0.00,,,0.00,0.000000,,2013-03-13 04:13:00,
2013-03-12 21:22:00,45.0,37.0,-100.00,WSW,250,2.0,6.0,74,0.00,,,0.00,0.000000,,2013-03-13 04:22:00,
2013-03-12 21:32:00,45.0,37.0,-100.00,WSW,250,2.0,6.0,74,0.00,,,0.00,0.000000,,2013-03-13 04:32:00,
2013-03-12 21:42:00,45.0,37.0,-100.00,WSW,250,2.0,6.0,74,0.00,,,0.00,0.000000,,2013-03-13 04:42:00,
2013-03-12 22:12:00,45.0,36.0,-100.00,WSW,255,4.0,7.0,70,0.00,,,0.00,0.000000,,2013-03-13 05:12:00,
2013-03-12 22:22:00,45.0,36.0,-100.00,WSW,255,4.0,7.0,70,0.00,,,0.00,0.000000,,2013-03-13 05:22:00,
2013-03-12 22:32:00,45.0,36.0,-100.00,WSW,255,4.0,7.0,70,0.00,,,0.00,0.000000,,2013-03-13 05:32:00,
2013-03-12 22:42:00,45.0,36.0,-100.00,WSW,255,4.0,7.0,70,0.00,,,0.00,0.000000,,2013-03-13 05:42:00,
2013-03-12 23:12:00,41.0,35.0,-100.00,SSW,203,0.0,7.0,79,0.00,,,0.00,0.000000,,2013-03-13 06:12:00,
2013-03-12 23:22:00,41.0,35.0,-100.00,SSW,203,0.0,7.0,79,0.00,,,0.00,0.000000,,2013-03-13 06:22:00,
2013-03-12 23:32:00,41.0,35.0,-100.00,SSW,203,0.0,7.0,79,0.00,,,0.00,0.000000,,2013-03-13 06:32:00,
2013-03-12 23:42:00,41.0,35.0,-100.00,SSW,203,0.0,7.0,79,0.00,,,0.00,0.000000,,2013-03-13 06:42:00,